YSSYYSWG

Guest
Details From YSSY - Sydney Intl
To YSWG - Wagga Wagga
Flight Number -
Tags decoded
Created
Modified
Stats Distance 204 nm / 378 km
Max Altitude 0 ft / 0 m
Waypoints 4
Social Downloads 0
Likes 0
Share VATSIM

Download

Looking for another format? Having issues loading an existing format? Contact us
Advertisement - Login to hide

Notes

Requested: YSSY TESAT V169 EXETA W10 WG YSWG Unmatched points: TESAT V169 W10

Route

YSSY EXETA WG YSWG

ID Type Via Altitude Latitude Longitude Leg Dist Tot Dist Heading (true) Name
O YSSY APT - 0 ft / 0 m -33.94927˚ 151.18135˚ - 0 nm - Sydney Intl
EXETA FIX - 0 ft / 0 m -34.64049˚ 150.27519˚ 61 nm 61 nm 227° / 228° -
WG NDB - 0 ft / 0 m -35.16302˚ 147.45557˚ 142 nm 203 nm 256° / 258° WAGGA WAGGA NDB
O YSWG APT - 0 ft / 0 m -35.16395˚ 147.46616˚ 0 nm 204 nm 96° / 96° Wagga Wagga

Altitude Profile

Advertisement - Login to hide

Weather


0- 5 10 15 20 25 30 35+ Temperature / ° C

Clouds and Precipitation
Forecast for 2018-05-22 12:00 UTC. Updated 3 hours ago

Ground ~20,000 ft ~40,000 ft Winds

YSSY

Details ICAO YSSY (SYD)
Name Sydney Intl
Region Australia
Timezone Australia/Sydney (UTC+10.0)
Stats Elevation 21 ft / 6 m (AMSL)
Location -33.949273° 151.181347°
Runways 3
Magnetic Variation 12.604° E

METAR

YSSY 221400Z 27008KT CAVOK 16/08 Q1022

Decode

TAF

TAF YSSY 221143Z 2212/2318 22008KT 9999 SCT035 FM221800 27005KT 9999 SCT030 FM222200 22010KT 9999 FEW035 FM230200 12008KT CAVOK FM230700 06008KT CAVOK FM231100 29008KT CAVOK

Decode

Departure Runways

ID Width Length Bearing (true) Bearing (mag) Surface Threshold Offset Overrun Length
07 148 ft / 45 m 8,285 ft / 2,525 m 74.13° 61.53° Asphalt 0 ft / 0 m 0 ft / 0 m
16L 148 ft / 45 m 8,018 ft / 2,444 m 167.81° 155.21° Asphalt 758 ft / 231 m 0 ft / 0 m
16R 148 ft / 45 m 13,033 ft / 3,973 m 167.86° 155.26° Asphalt 279 ft / 85 m 0 ft / 0 m
25 148 ft / 45 m 8,285 ft / 2,525 m 254.12° 241.52° Asphalt 324 ft / 99 m 0 ft / 0 m
34L 148 ft / 45 m 13,033 ft / 3,973 m 347.85° 335.25° Asphalt 0 ft / 0 m 0 ft / 0 m
34R 148 ft / 45 m 8,018 ft / 2,444 m 347.81° 335.21° Asphalt 125 ft / 38 m 0 ft / 0 m

YSWG

Details ICAO YSWG (WGA)
Name Wagga Wagga
Region Australia
Timezone Australia/Sydney (UTC+10.0)
Stats Elevation 724 ft / 221 m (AMSL)
Location -35.163952° 147.466157°
Runways 2
Magnetic Variation 11.692° E

METAR

YSWG 221400Z AUTO 24007KT 9999 // OVC018 14/11 Q1025

Decode

TAF

Not found

Destination Runways

ID Width Length Bearing (true) Bearing (mag) Surface Threshold Offset Overrun Length
05 148 ft / 45 m 5,790 ft / 1,765 m 62.00° 50.31° Asphalt 0 ft / 0 m 0 ft / 0 m
12 98 ft / 30 m 5,002 ft / 1,525 m 125.35° 113.66° Grass 0 ft / 0 m 0 ft / 0 m
23 148 ft / 45 m 5,790 ft / 1,765 m 241.99° 230.30° Asphalt 0 ft / 0 m 0 ft / 0 m
30 98 ft / 30 m 5,002 ft / 1,525 m 305.34° 293.65° Grass 0 ft / 0 m 0 ft / 0 m

Popular Alternatives